RH
86 84 82 80 80 80 80 84 87 85 72 60 58 68 84 77 77 84 88 86 84 81 87 100 99 99 100 100 100 100 100 100 100 99 100 93 96 96
83 89 85 83 86 91 90 91 93 94 89 71 72 76 85 85 88 93 96 95 92 91 94 100 100 98 96 99 100 99 99 99 98 99 100 98 95 97
82 84 86 89 88 88 92 93 98 100 98 96 93 86 87 95 93 96 98 98 99 100 100 100 99 100 99 98 98 98 98 98 100 100 100 100 98 100
82 90 92 98 98 95 96 96 99 99 100 98 93 92 94 98 100 100 100 100 100 100 100 100 99 99 99 98 98 98 99 98 98 98 99 100 98 99
93 97 99 100 99 98 99 100 99 96 96 99 99 95 100 100 99 100 100 100 100 100 100 100 100 98 99 99 99 99 98 99 99 98 98 99 100 100
98 99 99 100 100 99 100 99 99 98 96 93 94 99 100 99 100 100 100 99 99 100 100 99 99 100 99 100 96 93 98 99 99 99 97 97 97 100
99 98 96 99 100 99 98 99 99 98 98 98 100 99 99 100 100 100 100 100 100 100 100 99 99 95 94 90 94 88 97 98 98 97 95 94 92 90
99 99 98 99 100 100 97 94 97 99 99 100 99 99 100 100 99 100 100 100 100 100 100 81 83 87 94 94 96 95 95 94 95 92 95 97 90 90
100 100 99 97 96 99 96 93 92 93 90 85 84 85 84 96 94 90 88 88 89 81 93 80 75 78 74 96 94 91 93 96 97 97 95 73 58 61
99 99 99 98 98 94 89 90 88 75 78 81 77 78 72 82 89 76 58 63 69 63 72 70 56 66 66 64 67 94 96 86 75 67 58 58 51 53
98 96 98 98 96 86 87 84 77 68 50 47 52 64 50 42 46 69 61 71 59 66 58 76 64 64 66 66 67 61 66 66 67 66 49 46 45 47
88 80 88 93 92 81 76 70 57 64 68 69 64 56 52 50 46 50 64 82 78 70 72 77 79 71 80 68 72 72 68 73 68 66 68 71 73 43
90 74 79 64 66 62 59 59 62 66 67 64 66 66 66 67 67 63 62 62 91 84 74 63 99 85 86 83 72 70 64 70 66 63 60 65 76 73
82 84 93 92 80 76 57 54 56 64 64 66 70 76 72 67 73 75 72 65 56 56 53 51 80 90 92 89 74 66 58 64 66 68 63 54 54 59
88 91 99 99 98 67 58 60 62 64 66 74 84 83 69 60 62 67 78 76 73 56 54 55 62 69 93 95 89 84 74 67 74 74 70 56 62 60
94 90 83 83 74 62 70 68 66 71 82 86 84 76 71 64 67 71 83 83 88 86 84 68 62 60 77 96 89 91 79 77 77 81 77 59 57 64
93 83 95 98 96 86 82 74 73 72 74 80 84 79 77 84 79 79 86 91 88 88 89 75 64 84 76 60 69 87 80 82 86 89 84 79 59 63
89 95 99 98 97 97 91 83 81 79 79 79 86 89 93 94 95 94 92 92 90 88 91 91 87 81 82 81 78 61 65 75 77 78 84 93 79 58
88 94 99 99 98 98 95 90 91 84 72 82 94 94 94 92 94 92 91 90 88 89 90 96 99 96 92 96 78 83 85 82 81 76 83 87 95 71
95 81 99 100 99 98 94 94 89 83 87 86 94 95 95 94 94 90 89 90 89 93 94 88 86 92 97 95 95 86 79 88 88 89 86 80 77 58
87 91 96 99 98 97 97 93 93 91 93 94 95 94 93 96 90 90 90 88 89 90 91 88 92 100 100 100 96 88 85 87 93 95 96 100 100 89
86 96 97 99 98 97 97 96 95 94 94 94 94 92 95 95 91 92 91 94 96 96 97 99 95 94 95 96 91 95 98 84 77 78 91 93 99 96
94 95 95 88 96 97 96 97 94 96 90 93 91 94 95 92 96 94 94 95 100 100 99 97 95 89 90 87 91 92 93 91 88 87 73 79 85 84
Wind_Speed
3 4 5 5 5 7 9 10 7 3 3 9 8 6 3 10 13 10 8 9 11 12 10 5 5 4 8 9 7 9 11 12 14 14 12 11 12 13
4 4 5 6 6 7 9 10 12 12 4 9 12 13 13 10 9 7 8 8 8 8 3 5 4 3 6 8 9 9 8 12 14 14 12 12 12 14
4 5 6 7 8 9 9 11 15 16 11 16 17 17 14 7 6 8 8 7 2 5 4 2 3 3 5 6 7 8 10 11 12 12 13 14 14 12
5 5 5 6 7 7 8 10 12 11 9 10 14 15 9 9 7 7 5 3 6 6 8 8 6 5 5 6 6 6 8 10 11 12 13 13 12 13
5 5 5 6 5 5 7 7 9 9 9 10 9 10 6 3 4 2 2 2 3 3 2 1 3 5 5 5 5 6 7 9 9 11 13 15 15 16
4 5 5 5 4 5 5 6 8 9 8 9 10 8 3 4 1 1 0 1 1 1 2 3 3 4 7 8 8 8 9 10 11 11 13 14 15 17
3 4 4 3 2 4 3 6 8 8 8 8 4 3 4 4 4 3 1 4 8 4 6 6 7 6 8 8 7 9 9 9 11 11 12 12 13 13
4 4 4 1 1 1 3 5 8 5 5 0 3 4 5 5 6 4 2 1 1 3 4 4 4 5 6 8 9 9 8 9 10 11 11 11 11 12
4 4 3 2 2 2 3 7 9 10 8 7 8 7 5 6 5 5 6 4 2 2 3 1 3 2 2 3 6 4 5 7 7 8 10 11 11 10
3 3 3 3 3 2 5 4 4 6 7 8 10 9 7 5 5 4 5 6 6 8 2 2 4 1 2 4 1 2 4 5 7 9 11 12 13 12
2 1 3 3 3 3 4 4 3 5 8 10 11 11 11 10 6 4 6 5 0 3 9 3 5 6 4 4 5 4 7 8 10 10 11 12 13 11
4 3 3 4 3 5 4 4 4 3 3 4 6 8 9 10 10 10 7 7 4 1 8 7 5 7 5 6 5 7 7 7 7 9 11 12 13 13
5 6 6 5 4 5 5 4 5 4 4 4 5 7 8 9 10 9 9 7 5 4 7 6 4 5 4 5 6 5 8 8 8 11 11 11 13 11
7 9 7 7 7 6 5 5 4 2 2 4 5 7 8 9 8 7 7 6 6 4 6 5 1 4 4 5 4 9 9 5 8 13 14 14 12 11
8 9 10 8 6 5 4 3 1 2 3 4 5 5 7 7 6 5 5 5 6 7 8 8 5 6 3 5 7 6 10 10 6 14 17 17 14 13
8 7 6 3 2 1 2 2 2 2 3 3 2 3 4 6 6 6 7 5 4 6 10 10 10 7 4 6 8 7 8 8 14 15 19 17 14 11
10 8 5 3 2 1 1 2 3 3 2 2 2 2 3 4 5 6 7 7 6 8 10 12 11 9 8 8 6 6 11 15 14 17 19 20 17 13
9 7 5 4 5 4 2 2 2 2 1 1 2 3 3 3 4 6 6 6 7 8 10 13 14 15 11 6 5 8 11 15 20 20 17 16 22 19
10 8 7 8 7 7 5 5 3 3 2 3 4 4 3 2 3 4 5 6 7 9 9 9 10 11 8 2 8 8 13 20 23 23 19 18 20 26
14 11 10 10 10 8 7 7 6 4 3 4 5 5 4 3 2 3 4 6 7 7 8 7 7 8 7 7 8 19 15 18 19 23 25 25 24 22
16 14 12 11 10 10 9 8 7 6 6 6 5 5 4 1 1 3 4 6 7 7 8 8 10 11 12 11 10 17 20 17 15 19 24 20 18 13
15 17 15 12 11 11 10 9 9 9 9 9 6 4 3 1 2 3 4 7 7 8 9 11 12 11 10 11 14 18 22 22 20 15 14 15 16 7
16 17 16 14 13 13 12 12 11 10 8 9 8 6 4 2 2 3 5 7 7 8 9 12 12 11 12 13 14 17 21 21 20 23 21 12 13 16
Wind_Direction
294 291 290 286 272 262 255 247 253 296 301 285 315 321 358 323 324 318 304 307 312 319 311 286 280 315 350 10 12 28 25 19 17 12 10 352 351 342
288 279 285 287 275 264 254 247 245 257 274 286 302 307 309 311 312 302 298 307 329 345 321 236 244 306 346 37 47 46 26 27 25 19 15 8 5 1
289 283 291 287 279 277 275 272 272 266 260 279 283 291 294 283 297 284 282 292 332 95 123 95 79 56 31 33 30 29 32 32 25 20 22 24 28 22
294 291 292 290 285 283 276 283 283 285 303 297 294 296 292 277 267 276 281 245 173 121 112 104 91 67 41 48 53 39 20 28 20 24 27 27 27 26
301 301 295 305 312 304 302 295 294 298 290 275 284 296 288 268 277 275 241 175 182 217 231 216 60 55 67 55 35 19 13 31 36 34 37 41 40 38
303 296 303 309 320 312 328 327 316 311 307 298 296 290 299 309 343 283 77 55 108 63 52 52 84 90 43 43 41 41 40 46 46 41 40 42 46 43
300 303 313 300 302 333 350 352 349 332 317 312 328 342 2 7 14 339 98 108 62 75 55 64 61 55 56 41 46 46 42 41 45 46 45 39 36 34
285 293 300 298 98 319 359 4 13 10 353 128 53 63 34 30 26 21 101 155 33 36 73 47 74 84 72 55 43 52 55 48 44 40 32 25 21 21
285 272 255 241 210 269 66 45 42 55 69 84 88 56 50 30 37 57 70 87 87 17 88 53 82 26 49 83 67 60 49 42 36 24 13 5 360 354
269 272 229 224 220 160 87 97 76 78 90 86 89 76 68 82 65 77 80 73 66 27 59 333 356 320 326 317 14 62 32 18 1 354 348 345 342 342
254 251 214 166 199 152 150 142 120 84 78 78 77 71 65 63 70 88 46 8 125 50 16 14 353 327 270 252 296 329 336 335 338 344 345 344 345 348
115 96 117 135 178 151 153 173 165 135 113 90 67 59 52 49 49 53 52 48 27 84 359 9 351 355 323 232 275 303 324 321 341 343 343 344 347 349
120 105 78 96 120 143 148 179 188 167 120 81 54 42 35 32 32 36 42 49 59 65 347 356 337 344 303 304 300 294 332 327 335 342 341 341 340 338
111 98 94 97 108 119 145 149 151 123 70 45 38 29 27 23 20 19 31 40 43 36 355 2 317 334 315 295 299 311 333 330 331 340 341 340 337 332
122 127 113 117 108 115 137 139 115 52 35 39 40 27 18 15 17 22 19 30 21 22 15 9 349 318 287 285 300 315 336 330 331 342 330 336 337 336
146 130 136 145 159 126 88 51 41 41 71 72 66 32 16 29 34 39 40 26 29 4 355 358 358 339 313 288 291 300 321 324 326 329 328 332 338 335
166 171 194 203 201 251 348 13 14 24 54 83 80 69 57 45 37 36 43 35 30 1 354 344 357 351 333 300 297 291 316 321 324 325 331 330 335 342
183 194 211 227 243 256 255 260 311 5 22 90 108 112 93 73 49 31 30 20 6 355 351 346 2 5 357 317 297 293 311 324 326 327 330 322 321 333
204 214 218 226 236 241 231 233 237 241 210 155 151 146 138 104 56 29 11 0 348 345 341 338 353 358 345 320 324 321 313 322 325 326 325 319 308 315
220 228 229 240 236 230 219 219 221 212 184 167 149 155 140 105 40 359 353 352 342 337 336 337 336 339 327 318 311 304 326 312 317 315 320 322 316 322
222 229 234 245 232 220 221 218 216 201 193 178 174 155 139 120 329 331 325 327 328 327 325 326 324 320 313 323 307 307 319 324 312 305 307 310 311 311
222 224 238 236 233 221 218 220 212 191 196 179 182 167 180 230 305 314 319 321 320 319 313 315 324 324 318 311 309 310 315 328 333 327 307 288 277 294
227 233 234 236 234 219 219 218 205 196 198 178 182 188 192 209 311 310 317 317 311 311 317 321 325 326 319 316 314 314 315 323 334 330 338 341 313 297